JBU3577 KFLL-KMCO

Flight info

Callsign JBU3577
Flight time 0h 37m
Altitude 18000
Route FRSBE2 FRSBE TIRCO WAPOM MUNGI1
Aircraft A320/M-SDE3FGHIRWY/LB1

Departure

Time 2026-05-03 23:12
Airport Fort Lauderdale Hollywood International Airport (KFLL)

Arrival

Time 2026-05-03 23:49
Airport Orlando International Airport (KMCO)
Time Latitude Longitude Altitude Speed Heading
2026-05-03 22:14 26.07055 -80.14667 21 ft 0 kts 17°
2026-05-03 22:40 26.07054 -80.14667 21 ft 2 kts 17°
2026-05-03 22:40 26.07029 -80.14674 21 ft 4 kts
2026-05-03 22:40 26.07004 -80.14671 20 ft 4 kts 326°
2026-05-03 22:41 26.06994 -80.14656 21 ft 0 kts 271°
2026-05-03 22:47 26.06994 -80.14657 21 ft 1 kts 270°
2026-05-03 22:48 26.06992 -80.14677 20 ft 6 kts 259°
2026-05-03 22:48 26.06965 -80.14734 20 ft 11 kts 235°
2026-05-03 22:48 26.06915 -80.14815 19 ft 14 kts 248°
2026-05-03 22:48 26.06910 -80.14926 21 ft 15 kts 270°
2026-05-03 22:49 26.06911 -80.15008 23 ft 15 kts 270°
2026-05-03 22:49 26.06911 -80.15058 23 ft 0 kts 270°
2026-05-03 22:49 26.06911 -80.15060 23 ft 1 kts 270°
2026-05-03 22:49 26.06911 -80.15064 23 ft 0 kts 270°
2026-05-03 22:50 26.06911 -80.15071 23 ft 4 kts 269°
2026-05-03 22:50 26.06888 -80.15120 23 ft 10 kts 215°
2026-05-03 22:51 26.06802 -80.15131 23 ft 15 kts 177°
2026-05-03 22:51 26.06703 -80.15156 26 ft 15 kts 231°
2026-05-03 22:51 26.06694 -80.15275 26 ft 17 kts 270°
2026-05-03 22:51 26.06696 -80.15398 26 ft 13 kts 271°
2026-05-03 22:52 26.06696 -80.15421 30 ft 0 kts 271°
2026-05-03 22:52 26.06696 -80.15430 29 ft 5 kts 271°
2026-05-03 22:52 26.06696 -80.15465 26 ft 0 kts 270°
2026-05-03 22:53 26.06696 -80.15470 26 ft 2 kts 270°
2026-05-03 22:55 26.06696 -80.15471 26 ft 1 kts 270°
2026-05-03 22:55 26.06696 -80.15489 29 ft 1 kts 270°
2026-05-03 22:55 26.06696 -80.15515 25 ft 6 kts 270°
2026-05-03 22:55 26.06697 -80.15525 25 ft 2 kts 271°
2026-05-03 22:56 26.06697 -80.15526 25 ft 1 kts 271°
2026-05-03 22:57 26.06697 -80.15546 24 ft 1 kts 271°
2026-05-03 22:57 26.06697 -80.15566 24 ft 1 kts 271°
2026-05-03 22:57 26.06697 -80.15568 24 ft 0 kts 271°
2026-05-03 22:58 26.06697 -80.15569 24 ft 1 kts 271°
2026-05-03 22:58 26.06698 -80.15588 24 ft 1 kts 271°
2026-05-03 22:59 26.06698 -80.15621 24 ft 7 kts 271°
2026-05-03 22:59 26.06699 -80.15644 24 ft 4 kts 271°
2026-05-03 22:59 26.06699 -80.15660 23 ft 0 kts 271°
2026-05-03 23:01 26.06699 -80.15676 32 ft 3 kts 271°
2026-05-03 23:01 26.06699 -80.15687 19 ft 3 kts 270°
2026-05-03 23:02 26.06699 -80.15702 23 ft 0 kts 268°
2026-05-03 23:03 26.06699 -80.15712 23 ft 3 kts 267°
2026-05-03 23:03 26.06698 -80.15750 23 ft 6 kts 270°
2026-05-03 23:03 26.06697 -80.15767 23 ft 0 kts 266°
2026-05-03 23:06 26.06697 -80.15770 23 ft 2 kts 266°
2026-05-03 23:06 26.06688 -80.15799 22 ft 6 kts 241°
2026-05-03 23:06 26.06677 -80.15812 23 ft 0 kts 217°
2026-05-03 23:11 26.06648 -80.15819 21 ft 9 kts 186°
2026-05-03 23:11 26.06592 -80.15731 22 ft 26 kts 92°
2026-05-03 23:11 26.06589 -80.15253 24 ft 98 kts 90°
2026-05-03 23:11 26.06587 -80.14272 33 ft 151 kts 89°
2026-05-03 23:12 26.06544 -80.13090 508 ft 152 kts 88°
2026-05-03 23:12 26.06571 -80.11916 983 ft 152 kts 84°
2026-05-03 23:12 26.06794 -80.10755 1382 ft 161 kts 63°
2026-05-03 23:12 26.07417 -80.09628 1638 ft 182 kts 54°
2026-05-03 23:13 26.08157 -80.08384 1830 ft 204 kts 54°
2026-05-03 23:13 26.09170 -80.07197 2032 ft 220 kts 31°
2026-05-03 23:13 26.10628 -80.06488 2314 ft 236 kts 18°
2026-05-03 23:13 26.12203 -80.05864 2781 ft 246 kts 18°
2026-05-03 23:14 26.13881 -80.05197 3127 ft 263 kts 17°
2026-05-03 23:14 26.15694 -80.04871 3695 ft 267 kts 354°
2026-05-03 23:14 26.17486 -80.05352 4271 ft 267 kts 338°
2026-05-03 23:14 26.19254 -80.06040 4905 ft 270 kts 337°
2026-05-03 23:15 26.20966 -80.06905 5738 ft 271 kts 323°
2026-05-03 23:15 26.22383 -80.08264 6721 ft 269 kts 307°
2026-05-03 23:15 26.23375 -80.10019 7640 ft 269 kts 291°
2026-05-03 23:15 26.24061 -80.11960 8596 ft 270 kts 289°
2026-05-03 23:16 26.24748 -80.13916 9545 ft 272 kts 289°
2026-05-03 23:16 26.25475 -80.15878 10403 ft 276 kts 294°
2026-05-03 23:16 26.26492 -80.17781 10852 ft 298 kts 298°
2026-05-03 23:16 26.27632 -80.19795 11257 ft 314 kts 299°
2026-05-03 23:17 26.28819 -80.21869 11960 ft 320 kts 299°
2026-05-03 23:17 26.30025 -80.23965 12670 ft 324 kts 299°
2026-05-03 23:17 26.31244 -80.26086 12931 ft 325 kts 299°
2026-05-03 23:17 26.32460 -80.28211 13004 ft 325 kts 299°
2026-05-03 23:18 26.33671 -80.30335 13022 ft 325 kts 299°
2026-05-03 23:18 26.34880 -80.32463 13027 ft 324 kts 298°
2026-05-03 23:18 26.36087 -80.34589 13025 ft 324 kts 298°
2026-05-03 23:18 26.37294 -80.36718 13027 ft 324 kts 298°
2026-05-03 23:19 26.38497 -80.38842 13025 ft 324 kts 298°
2026-05-03 23:19 26.39711 -80.40992 13433 ft 330 kts 298°
2026-05-03 23:19 26.40933 -80.43156 14231 ft 330 kts 298°
2026-05-03 23:19 26.42161 -80.45332 14922 ft 333 kts 298°
2026-05-03 23:20 26.43398 -80.47526 15603 ft 335 kts 298°
2026-05-03 23:20 26.44642 -80.49735 16284 ft 338 kts 297°
2026-05-03 23:20 26.45897 -80.51962 16953 ft 340 kts 297°
2026-05-03 23:20 26.47246 -80.54156 17600 ft 348 kts 305°
2026-05-03 23:21 26.49033 -80.56028 17945 ft 358 kts 318°
2026-05-03 23:21 26.51250 -80.57350 18031 ft 367 kts 333°
2026-05-03 23:21 26.53677 -80.58152 18026 ft 369 kts 337°
2026-05-03 23:21 26.56143 -80.58926 18052 ft 368 kts 337°
2026-05-03 23:22 26.61067 -80.60473 18032 ft 367 kts 337°
2026-05-03 23:22 26.63529 -80.61249 18032 ft 367 kts 337°
2026-05-03 23:22 26.65989 -80.62026 18031 ft 367 kts 337°
2026-05-03 23:23 26.68445 -80.62806 18034 ft 367 kts 337°
2026-05-03 23:23 26.70904 -80.63591 18034 ft 367 kts 337°
2026-05-03 23:23 26.73361 -80.64375 18036 ft 367 kts 337°
2026-05-03 23:23 26.75818 -80.65158 18038 ft 367 kts 337°
2026-05-03 23:24 26.78279 -80.65940 18037 ft 368 kts 337°
2026-05-03 23:24 26.80740 -80.66722 18042 ft 368 kts 337°
2026-05-03 23:24 26.83204 -80.67506 18054 ft 368 kts 337°
2026-05-03 23:24 26.85669 -80.68291 18045 ft 368 kts 337°
2026-05-03 23:25 26.88131 -80.69078 18078 ft 368 kts 336°
2026-05-03 23:25 26.90598 -80.69870 18062 ft 369 kts 336°
2026-05-03 23:25 26.93051 -80.70694 18065 ft 368 kts 335°
2026-05-03 23:25 26.95477 -80.71587 18063 ft 367 kts 334°
2026-05-03 23:26 26.97887 -80.72515 18061 ft 366 kts 333°
2026-05-03 23:26 27.00295 -80.73456 18061 ft 366 kts 333°
2026-05-03 23:26 27.02703 -80.74394 18060 ft 367 kts 333°
2026-05-03 23:26 27.05115 -80.75325 18061 ft 367 kts 333°
2026-05-03 23:27 27.07530 -80.76247 18062 ft 367 kts 334°
2026-05-03 23:27 27.09948 -80.77162 18062 ft 367 kts 334°
2026-05-03 23:27 27.12367 -80.78079 18061 ft 367 kts 334°
2026-05-03 23:27 27.14784 -80.78999 18060 ft 367 kts 334°
2026-05-03 23:28 27.17201 -80.79917 18085 ft 367 kts 334°
2026-05-03 23:28 27.19620 -80.80833 18078 ft 367 kts 334°
2026-05-03 23:28 27.22038 -80.81747 18073 ft 366 kts 334°
2026-05-03 23:28 27.24453 -80.82659 18070 ft 366 kts 334°
2026-05-03 23:29 27.26864 -80.83574 18068 ft 366 kts 334°
2026-05-03 23:29 27.29243 -80.84480 18066 ft 366 kts 334°
2026-05-03 23:29 27.31651 -80.85399 18064 ft 366 kts 334°
2026-05-03 23:29 27.34084 -80.86263 18063 ft 367 kts 336°
2026-05-03 23:30 27.36553 -80.87031 18060 ft 369 kts 338°
2026-05-03 23:30 27.39042 -80.87746 18061 ft 369 kts 338°
2026-05-03 23:30 27.41536 -80.88445 18062 ft 369 kts 338°
2026-05-03 23:30 27.44028 -80.89146 18074 ft 369 kts 338°
2026-05-03 23:31 27.46517 -80.89857 18074 ft 369 kts 338°
2026-05-03 23:31 27.49001 -80.90577 18061 ft 368 kts 338°
2026-05-03 23:31 27.51449 -80.91295 17738 ft 359 kts 338°
2026-05-03 23:31 27.53858 -80.92012 17166 ft 355 kts 338°
2026-05-03 23:32 27.56198 -80.92710 16716 ft 341 kts 338°
2026-05-03 23:32 27.58446 -80.93380 16301 ft 328 kts 338°
2026-05-03 23:32 27.60648 -80.94041 15894 ft 327 kts 338°
2026-05-03 23:32 27.62844 -80.94705 15490 ft 326 kts 338°
2026-05-03 23:33 27.65037 -80.95365 15084 ft 326 kts 338°
2026-05-03 23:33 27.67225 -80.96022 14681 ft 325 kts 339°
2026-05-03 23:33 27.69412 -80.96677 14277 ft 325 kts 339°
2026-05-03 23:33 27.71594 -80.97332 13870 ft 322 kts 339°
2026-05-03 23:34 27.73731 -80.97967 13440 ft 314 kts 339°
2026-05-03 23:34 27.75842 -80.98596 13040 ft 313 kts 339°
2026-05-03 23:34 27.77235 -80.99014 12798 ft 312 kts 339°
2026-05-03 23:34 27.79335 -80.99645 12385 ft 312 kts 339°
2026-05-03 23:35 27.81430 -81.00276 11952 ft 309 kts 339°
2026-05-03 23:35 27.83484 -81.00888 11564 ft 301 kts 340°
2026-05-03 23:35 27.85487 -81.01480 11190 ft 294 kts 339°
2026-05-03 23:35 27.87442 -81.02061 10823 ft 288 kts 339°
2026-05-03 23:36 27.89356 -81.02632 10464 ft 281 kts 339°
2026-05-03 23:36 27.91232 -81.03196 10076 ft 277 kts 339°
2026-05-03 23:36 27.93086 -81.03756 9665 ft 273 kts 339°
2026-05-03 23:36 27.94856 -81.04464 9270 ft 270 kts 334°
2026-05-03 23:37 27.96617 -81.05217 8892 ft 271 kts 335°
2026-05-03 23:37 27.98388 -81.05970 8507 ft 273 kts 335°
2026-05-03 23:37 28.00170 -81.06726 8122 ft 275 kts 336°
2026-05-03 23:37 28.01965 -81.07486 7739 ft 276 kts 336°
2026-05-03 23:38 28.03771 -81.08250 7351 ft 278 kts 336°
2026-05-03 23:38 28.05587 -81.09020 6958 ft 279 kts 336°
2026-05-03 23:38 28.07413 -81.09790 6563 ft 281 kts 338°
2026-05-03 23:38 28.09210 -81.10543 6356 ft 265 kts 338°
2026-05-03 23:39 28.10891 -81.11243 6271 ft 250 kts 338°
2026-05-03 23:39 28.12475 -81.11903 6166 ft 236 kts 338°
2026-05-03 23:39 28.13957 -81.12563 6059 ft 221 kts 330°
2026-05-03 23:39 28.14987 -81.13728 5960 ft 203 kts 294°
2026-05-03 23:40 28.15435 -81.15170 5897 ft 187 kts 284°
2026-05-03 23:40 28.15747 -81.16563 5690 ft 181 kts 283°
2026-05-03 23:40 28.16036 -81.17939 5414 ft 177 kts 283°
2026-05-03 23:40 28.16316 -81.19298 5156 ft 178 kts 283°
2026-05-03 23:41 28.16593 -81.20659 4858 ft 176 kts 283°
2026-05-03 23:41 28.16861 -81.22000 4583 ft 174 kts 283°
2026-05-03 23:41 28.17122 -81.23328 4301 ft 172 kts 283°
2026-05-03 23:41 28.17373 -81.24663 3968 ft 174 kts 283°
2026-05-03 23:42 28.17618 -81.26013 3652 ft 175 kts 283°
2026-05-03 23:42 28.18088 -81.27261 3321 ft 173 kts 314°
2026-05-03 23:42 28.18921 -81.28228 3052 ft 169 kts 322°
2026-05-03 23:42 28.19795 -81.29004 3007 ft 150 kts 337°
2026-05-03 23:43 28.20745 -81.29335 3025 ft 139 kts 359°
2026-05-03 23:43 28.21695 -81.29358 3019 ft 136 kts
2026-05-03 23:43 28.22639 -81.29368 3021 ft 136 kts
2026-05-03 23:43 28.23575 -81.29379 3018 ft 134 kts
2026-05-03 23:44 28.24515 -81.29388 3018 ft 135 kts
2026-05-03 23:44 28.25467 -81.29398 2976 ft 137 kts
2026-05-03 23:44 28.26414 -81.29408 2858 ft 136 kts
2026-05-03 23:44 28.27355 -81.29418 2712 ft 134 kts
2026-05-03 23:45 28.28285 -81.29428 2532 ft 133 kts
2026-05-03 23:45 28.29216 -81.29438 2364 ft 135 kts
2026-05-03 23:45 28.30152 -81.29448 2197 ft 133 kts
2026-05-03 23:45 28.31071 -81.29457 2007 ft 131 kts
2026-05-03 23:46 28.31987 -81.29467 1830 ft 133 kts
2026-05-03 23:46 28.32904 -81.29476 1660 ft 133 kts
2026-05-03 23:46 28.33829 -81.29486 1472 ft 132 kts
2026-05-03 23:46 28.34738 -81.29496 1305 ft 130 kts
2026-05-03 23:47 28.35634 -81.29505 1132 ft 128 kts
2026-05-03 23:47 28.36526 -81.29514 955 ft 131 kts
2026-05-03 23:47 28.37432 -81.29524 791 ft 129 kts
2026-05-03 23:47 28.38346 -81.29533 625 ft 134 kts
2026-05-03 23:48 28.39275 -81.29543 454 ft 133 kts
2026-05-03 23:48 28.40193 -81.29553 272 ft 133 kts
2026-05-03 23:48 28.41122 -81.29577 114 ft 129 kts
2026-05-03 23:48 28.41924 -81.29563 104 ft 92 kts 349°
2026-05-03 23:49 28.42411 -81.29594 100 ft 53 kts
2026-05-03 23:49 28.42704 -81.29580 101 ft 33 kts 356°
2026-05-03 23:49 28.42855 -81.29626 105 ft 14 kts 328°
2026-05-03 23:49 28.42885 -81.29655 106 ft 0 kts 312°
2026-05-03 23:50 28.42891 -81.29665 104 ft 3 kts 302°
2026-05-03 23:50 28.42899 -81.29703 105 ft 0 kts 270°
2026-05-03 23:52 28.42900 -81.29713 105 ft 5 kts 282°
2026-05-03 23:53 28.42910 -81.29787 103 ft 14 kts 276°
2026-05-03 23:53 28.42896 -81.29864 102 ft 9 kts 221°
2026-05-03 23:53 28.42817 -81.29881 103 ft 15 kts 181°
2026-05-03 23:53 28.42687 -81.29883 103 ft 22 kts 177°
2026-05-03 23:54 28.42533 -81.29897 103 ft 21 kts 204°
2026-05-03 23:54 28.42430 -81.29999 102 ft 19 kts 244°
2026-05-03 23:54 28.42405 -81.30129 103 ft 15 kts 222°
2026-05-03 23:54 28.42353 -81.30232 103 ft 17 kts 276°
2026-05-03 23:55 28.42353 -81.30389 101 ft 23 kts 269°
2026-05-03 23:55 28.42343 -81.30577 105 ft 25 kts 266°
2026-05-03 23:55 28.42330 -81.30796 104 ft 31 kts 265°
2026-05-03 23:55 28.42323 -81.31058 100 ft 33 kts 276°
2026-05-03 23:56 28.42355 -81.31267 100 ft 16 kts 300°
2026-05-03 23:56 28.42410 -81.31287 100 ft 9 kts 340°
2026-05-03 23:56 28.42472 -81.31338 100 ft 14 kts 316°
2026-05-03 23:56 28.42526 -81.31393 101 ft 4 kts 321°
2026-05-03 23:57 28.42554 -81.31424 102 ft 7 kts 309°
2026-05-03 23:57 28.42585 -81.31458 101 ft 1 kts 321°
2026-05-03 23:57 28.42594 -81.31466 102 ft 1 kts 322°
2026-05-03 23:57 28.42596 -81.31468 102 ft 0 kts 321°
2026-05-03 23:58 28.42599 -81.31470 102 ft 0 kts 322°
2026-05-03 23:58 28.42600 -81.31471 102 ft 0 kts 322°
2026-05-03 23:59 28.42583 -81.31458 101 ft 0 kts 323°